Weather Roundup
Issued by NWS Springfield, MO

Home | Current Version | Previous Version | Text Only | Print | Product List | Glossary On
Versions: 1 2 3 4 5 6 7 8 9 10 11 12 13 14 15 16 17 18 19 20 21 22 23 24 25 26 27 28 29 30 31 32 33 34 35 36 37 38 39 40 41 42 43 44 45 46 47 48 49 50
713
NZUS99 KSGF 110057
HRRSGF

HOURLY WEATHER
NATIONAL WEATHER SERVICE SPRINGFIELD MO
700 PM CST WED FEB 10 2016

......SGF CWA......

CITY           SKY/WX    TMP DP  RH WIND       PRES   REMARKS
SPRINGFIELD    CLEAR     36  19  50 SE5       29.97R WCI  32
JOPLIN         CLEAR     47  24  40 SE5       29.95R
WEST PLAINS    CLEAR     35  13  40 SE3       30.05R
BRANSON        CLEAR     45  21  39 CALM      29.99R

......SURROUNDING SGF CWA......

CITY           SKY/WX    TMP DP  RH WIND       PRES   REMARKS
CHANUTE        CLEAR     44  28  53 SE3       29.92R
PARSONS        CLEAR     51  28  41 S3        29.92R
COFFEYVILLE    CLEAR     49  27  42 S3        29.92S
EMPORIA        CLEAR     52  30  43 W5        29.91R
HARRISON AR    CLEAR     48  19  31 SW3       29.99R

......KANSAS AND MISSOURI......

CITY           SKY/WX    TMP DP  RH WIND       PRES   REMARKS
KANSAS CTY INT PTCLDY    40  21  46 E14       29.97R WCI  32
SEDALIA        CLEAR     30  20  66 E9        30.05R WCI  22
ST JOSEPH      CLEAR     39  20  46 E13       29.99R WCI  31
ST LOUIS       FLURRIES  23  17  78 E6        30.14S WCI  16
WICHITA        PTCLDY    57  29  34 NW10      29.92R
TOPEKA         CLEAR     47  26  44 E9        29.93R
OLATHE         CLEAR     42  21  43 E7        29.96R

......TENNESSEE......

CITY           SKY/WX    TMP DP  RH WIND       PRES   REMARKS
MEMPHIS        NOT AVBL
NASHVILLE      LGT SNOW  25  20  81 W6        30.20R WCI  18

......ARKANSAS.......

CITY           SKY/WX    TMP DP  RH WIND       PRES   REMARKS
FAYETTEVILLE   CLEAR     44  26  49 S3        29.98S
FT SMITH       CLEAR     51  25  36 CALM      30.00S
LITTLE ROCK    CLEAR     46  24  42 S7        30.05F

......OKLAHOMA.......

CITY           SKY/WX    TMP DP  RH WIND       PRES   REMARKS
TULSA          CLEAR     61  32  33 S8        29.91S
PONCA CITY     CLEAR     58  30  34 CALM      29.91R
MCALESTER      PTCLDY    59  32  36 S8        30.00F
OKLAHOMA CITY  CLEAR     58  31  35 SW9       29.96S

......IOWA............

CITY           SKY/WX    TMP DP  RH WIND       PRES   REMARKS
DES MOINES     NOT AVBL
QUAD CITIES    PTCLDY    17   2  51 NW6       30.14R WCI   9

......ILLINOIS........

CITY           SKY/WX    TMP DP  RH WIND       PRES   REMARKS
QUINCY         NOT AVBL
CHICAGO        CLOUDY    14   2  58 N12       30.11R WCI   0




USA.gov is the U.S. government's official web portal to all federal, state and local government web resources and services.